Starlink 35161

operational
NORAD ID: 65936 Int'l Des: 2025-225 Owner: SPXS Country: US Constellation: starlink
LEOCIRCULAR

About Starlink 35161

Description loading...

Live Position

Loading 3D Globe...

Upcoming Passes

Altitude History

Altitude vs Time

uPlot chart will show altitude changes over time

Two-Line Element Set

1 65936U 25225AC 26062.60990168 .00031081 00000-0 10565-2 0 9992
2 65936 53.1602 194.1733 0001239 147.5766 212.5312 15.30219740 22582
Epoch: Mar 3, 2026 • Age: 27 hours

Current Status

Altitude 476.1 km
Velocity 7.63 km/s
Sub-Earth Point 5.60°N, 14.09°W
Launch Date Oct 8, 2025
Age 0.3 years
Type internet

Technical Details

Classification Payload
Mass 575.00 kg
Dry Mass 530.00 kg
Total Mass 575.00 kg
Length 0.30 m
Diameter 4.10 m
Span 29.00 m
Shape Box + pan
Manufacturer SPXS
Bus Type Starlink V2MO
Phase Status In Orbit
Owner/State SPXS/US

Large Constellations

Loading constellations...